Weather History for Rensselaer, IN

Change the Weather History Date:

Saturday, July 14, 2012

  Actual Average (KVPZ) Record (KVPZ)
Temperature  
Mean Temperature 76 °F 73 °F  
Max Temperature 86 °F 83 °F 92 °F (2012)
Min Temperature 66 °F 63 °F 47 °F (2009)
Degree Days  
Heating Degree Days 0 0  
Month to date heating degree days 0  
Since 1 June heating degree days 41  
Since 1 July heating degree days 0  
Cooling Degree Days 11 8  
Month to date cooling degree days 112  
Year to date cooling degree days 323  
Since 1 June cooling degree days 276  
Growing Degree Days 26 (Base 50)    
Moisture  
Dew Point 67 °F    
Average Humidity 74    
Maximum Humidity 94    
Minimum Humidity 51    
Precipitation  
Precipitation 0.00 in 0.16 in 0.30 in (2012)
Month to date precipitation 1.93  
Year to date precipitation 18.82  
Sea Level Pressure  
Sea Level Pressure 30.06 in    
Wind  
Wind Speed 2 mph (SSW)    
Max Wind Speed 14 mph    
Max Gust Speed 18 mph    
Visibility 10 miles    
Events Thunderstorm    
T = Trace of Precipitation, MM = Missing Value Source: NWS Daily Summary

Daily Weather History Graph

Daily Weather History Graph

Search for Another Location

Airport:

Trip Planner

Search our weather history database for the weather conditions in past years. The results will help you decide how hot, cold, wet, or windy it might be!

Date:

Astronomy

Jul. 14, 2012 Rise Set
Actual Time 5:29 AM CDT 8:19 PM CDT
Civil Twilight 4:56 AM CDT 8:52 PM CDT
Nautical Twilight 4:15 AM CDT 9:33 PM CDT
Astronomical Twilight 3:28 AM CDT 10:20 PM CDT
Moon 1:43 AM CDT (7/14) 4:43 PM CDT (7/14)
Length of Visible Light 15h 55m
Length of Day
14h 50m
Waning Crescent, 18% of the Moon is Illuminated
Jul 14
Waning Crescent
Jul 18
New
Jul 26
First Quarter
Aug 1
Full
Aug 9
Last Quarter

Hourly Weather History & Observations

Time (CDT) Temp. Heat Index Dew Point Humidity Pressure Visibility Wind Dir Wind Speed Gust Speed Precip Events Conditions
12:15 AM 69.8 °F - 64.4 °F 83% 30.05 in 10.0 mi Calm Calm - N/A   Scattered Clouds
12:35 AM 69.8 °F - 64.4 °F 83% 30.05 in 10.0 mi SSW 3.5 mph - N/A   Clear
12:55 AM 68.0 °F - 64.4 °F 88% 30.05 in 10.0 mi SSW 3.5 mph - N/A   Clear
1:15 AM 68.0 °F - 64.4 °F 88% 30.05 in 10.0 mi Calm Calm - N/A   Clear
1:35 AM 66.2 °F - 62.6 °F 88% 30.05 in 10.0 mi Calm Calm - N/A   Clear
1:55 AM 68.0 °F - 64.4 °F 88% 30.05 in 10.0 mi Calm Calm - N/A   Clear
2:15 AM 68.0 °F - 64.4 °F 88% 30.05 in 10.0 mi Calm Calm - N/A   Clear
2:35 AM 66.2 °F - 62.6 °F 88% 30.05 in 10.0 mi Calm Calm - N/A   Clear
2:55 AM 66.2 °F - 64.4 °F 94% 30.05 in 10.0 mi Calm Calm - N/A   Clear
3:15 AM 66.2 °F - 62.6 °F 88% 30.05 in 10.0 mi Calm Calm - N/A   Clear
3:35 AM 66.2 °F - 64.4 °F 94% 30.05 in 10.0 mi Calm Calm - N/A   Clear
3:55 AM 68.0 °F - 64.4 °F 88% 30.05 in 10.0 mi SE 4.6 mph - N/A   Clear
4:15 AM 68.0 °F - 64.4 °F 88% 30.05 in 10.0 mi SSE 3.5 mph - N/A   Clear
4:35 AM 68.0 °F - 64.4 °F 88% 30.06 in 10.0 mi SSE 3.5 mph - N/A   Clear
5:15 AM 68.0 °F - 64.4 °F 88% 30.07 in 10.0 mi Calm Calm - N/A   Clear
5:35 AM 68.0 °F - 64.4 °F 88% 30.07 in 10.0 mi Calm Calm - N/A   Clear
5:55 AM 68.0 °F - 64.4 °F 88% 30.07 in 10.0 mi Calm Calm - N/A   Clear
6:15 AM 69.8 °F - 66.2 °F 88% 30.07 in 10.0 mi Calm Calm - N/A   Clear
6:35 AM 69.8 °F - 66.2 °F 88% 30.08 in 10.0 mi Calm Calm - N/A   Clear
6:55 AM 69.8 °F - 66.2 °F 88% 30.08 in 10.0 mi Calm Calm - N/A   Clear
7:15 AM 69.8 °F - 68.0 °F 94% 30.09 in 10.0 mi Calm Calm - N/A   Clear
7:35 AM 71.6 °F - 68.0 °F 88% 30.09 in 10.0 mi SSW 4.6 mph - N/A   Clear
7:55 AM 73.4 °F - 68.0 °F 83% 30.10 in 10.0 mi SSW 3.5 mph - N/A   Clear
8:15 AM 75.2 °F - 69.8 °F 83% 30.10 in 10.0 mi SSW 5.8 mph - N/A   Clear
8:35 AM 77.0 °F - 69.8 °F 78% 30.10 in 10.0 mi SSW 4.6 mph - N/A   Clear
8:55 AM 77.0 °F - 69.8 °F 78% 30.11 in 10.0 mi West 4.6 mph - N/A   Scattered Clouds
9:15 AM 80.6 °F 83.9 °F 69.8 °F 70% 30.11 in 10.0 mi WNW 5.8 mph - N/A   Scattered Clouds
9:35 AM 80.6 °F 83.9 °F 69.8 °F 70% 30.10 in 10.0 mi WNW 5.8 mph - N/A   Scattered Clouds
9:55 AM 82.4 °F 86.3 °F 69.8 °F 66% 30.10 in 10.0 mi Calm Calm - N/A   Clear
10:15 AM 82.4 °F 86.3 °F 69.8 °F 66% 30.10 in 10.0 mi Calm Calm - N/A   Scattered Clouds
10:35 AM 82.4 °F 85.4 °F 68.0 °F 62% 30.09 in 10.0 mi Calm Calm - N/A   Scattered Clouds
10:55 AM 84.2 °F 88.4 °F 69.8 °F 62% 30.09 in 10.0 mi West 5.8 mph - N/A   Scattered Clouds
11:15 AM 86.0 °F 90.4 °F 69.8 °F 58% 30.09 in 10.0 mi West 3.5 mph - N/A   Clear
11:35 AM 86.0 °F 89.4 °F 68.0 °F 55% 30.08 in 10.0 mi Calm Calm - N/A   Clear
11:55 AM 86.0 °F 89.4 °F 68.0 °F 55% 30.07 in 10.0 mi Calm Calm - N/A   Clear
12:15 PM 86.0 °F 89.4 °F 68.0 °F 55% 30.07 in 10.0 mi SSW 4.6 mph - N/A   Scattered Clouds
12:35 PM 86.0 °F 89.4 °F 68.0 °F 55% 30.06 in 10.0 mi Calm Calm - N/A   Scattered Clouds
12:55 PM 86.0 °F 88.2 °F 66.2 °F 51% 30.05 in 10.0 mi SW 4.6 mph - N/A   Scattered Clouds
1:15 PM 84.2 °F 87.3 °F 68.0 °F 58% 30.05 in 10.0 mi SSW 3.5 mph - N/A   Scattered Clouds
1:35 PM 84.2 °F 87.3 °F 68.0 °F 58% 30.06 in 10.0 mi SSW 4.6 mph - N/A   Clear
1:55 PM 86.0 °F 88.2 °F 66.2 °F 51% 30.05 in 10.0 mi South 5.8 mph - N/A   Clear
2:15 PM 86.0 °F 89.4 °F 68.0 °F 55% 30.03 in 10.0 mi SSW 5.8 mph - N/A   Clear
2:35 PM 82.4 °F 86.3 °F 69.8 °F 66% 30.03 in 10.0 mi South 9.2 mph - N/A   Clear
2:55 PM 82.4 °F 86.3 °F 69.8 °F 66% 30.02 in 10.0 mi SSW 8.1 mph - N/A   Clear
3:15 PM 84.2 °F 87.3 °F 68.0 °F 58% 30.03 in 10.0 mi South 13.8 mph 18.4 mph N/A Thunderstorm Clear
3:35 PM 82.4 °F 85.4 °F 68.0 °F 62% 30.05 in 10.0 mi SSW 6.9 mph - N/A   Clear
3:55 PM 82.4 °F 86.3 °F 69.8 °F 66% 30.05 in 10.0 mi SSW 10.4 mph 16.1 mph N/A   Scattered Clouds
4:15 PM 82.4 °F 86.3 °F 69.8 °F 66% 30.04 in 10.0 mi WSW 10.4 mph 18.4 mph N/A   Scattered Clouds
4:35 PM 80.6 °F 83.2 °F 68.0 °F 65% 30.04 in 10.0 mi WSW 6.9 mph - N/A   Scattered Clouds
4:55 PM 82.4 °F 83.9 °F 64.4 °F 54% 30.04 in 10.0 mi WSW 3.5 mph - N/A   Clear
5:15 PM 82.4 °F 84.6 °F 66.2 °F 58% 30.03 in 10.0 mi Calm Calm - N/A   Clear
5:35 PM 82.4 °F 84.6 °F 66.2 °F 58% 30.04 in 10.0 mi SE 3.5 mph - N/A   Clear
5:55 PM 82.4 °F 85.4 °F 68.0 °F 62% 30.03 in 10.0 mi ENE 4.6 mph - N/A   Clear
6:15 PM 82.4 °F 85.4 °F 68.0 °F 62% 30.01 in 10.0 mi South 4.6 mph - N/A   Clear
6:35 PM 82.4 °F 85.4 °F 68.0 °F 62% 30.01 in 10.0 mi Calm Calm - N/A   Clear
6:55 PM 80.6 °F 83.2 °F 68.0 °F 65% 30.02 in 10.0 mi SSW 3.5 mph - N/A   Clear
7:15 PM 78.8 °F - 68.0 °F 69% 30.03 in 10.0 mi South 4.6 mph - N/A   Clear
7:35 PM 78.8 °F - 68.0 °F 69% 30.03 in 10.0 mi SSW 5.8 mph - N/A   Clear
7:55 PM 77.0 °F - 66.2 °F 69% 30.03 in 10.0 mi SSW 3.5 mph - N/A   Clear
8:15 PM 77.0 °F - 68.0 °F 74% 30.04 in 10.0 mi SSW 3.5 mph - N/A   Clear
8:35 PM 77.0 °F - 68.0 °F 74% 30.04 in 10.0 mi South 3.5 mph - N/A   Clear
8:55 PM 77.0 °F - 66.2 °F 69% 30.04 in 10.0 mi South 4.6 mph - N/A   Scattered Clouds
9:15 PM 75.2 °F - 66.2 °F 73% 30.04 in 10.0 mi Calm Calm - N/A   Clear
9:35 PM 73.4 °F - 68.0 °F 83% 30.04 in 10.0 mi Calm Calm - N/A   Clear
9:55 PM 73.4 °F - 68.0 °F 83% 30.05 in 10.0 mi South 4.6 mph - N/A   Clear
10:15 PM 73.4 °F - 68.0 °F 83% 30.05 in 10.0 mi SSE 3.5 mph - N/A   Clear
10:35 PM 73.4 °F - 68.0 °F 83% 30.05 in 10.0 mi South 3.5 mph - N/A   Clear
10:55 PM 71.6 °F - 68.0 °F 88% 30.06 in 10.0 mi Calm Calm - N/A   Clear
11:15 PM 71.6 °F - 68.0 °F 88% 30.06 in 10.0 mi SSE 5.8 mph - N/A   Clear
11:35 PM 71.6 °F - 68.0 °F 88% 30.06 in 10.0 mi SSW 3.5 mph - N/A   Clear
11:55 PM 69.8 °F - 68.0 °F 94% 30.06 in 10.0 mi SSW 3.5 mph - N/A   Clear